QPF
0.00 0.00 0.02 0.04 0.11 0.06 0.01 0.00 0.00 0.00 0.00 0.00 0.00 0.00 0.00 0.03 0.09 0.11 0.02 0.00 0.00 0.00 0.00 0.00 0.00 0.00 0.01 0.01 0.00 0.01 0.01 0.02 0.02 0.02 0.02 0.02 0.01 0.01 0.01 0.01 0.01 0.01 0.01 0.01 0.01 0.02 0.02 0.02 0.02
0.00 0.01 0.02 0.09 0.11 0.02 0.01 0.00 0.00 0.00 0.00 0.00 0.00 0.00 0.00 0.00 0.01 0.01 0.00 0.00 0.00 0.00 0.00 0.00 0.00 0.01 0.01 0.01 0.01 0.01 0.01 0.01 0.01 0.01 0.01 0.02 0.01 0.01 0.01 0.01 0.01 0.01 0.01 0.01 0.01 0.02 0.02 0.02 0.03
0.00 0.01 0.04 0.10 0.02 0.02 0.02 0.00 0.00 0.00 0.00 0.00 0.00 0.00 0.00 0.01 0.00 0.00 0.00 0.00 0.00 0.00 0.00 0.01 0.01 0.01 0.01 0.01 0.01 0.01 0.02 0.02 0.01 0.01 0.00 0.00 0.00 0.01 0.01 0.01 0.01 0.01 0.01 0.01 0.01 0.01 0.01 0.01 0.01
0.00 0.02 0.04 0.04 0.01 0.01 0.00 0.00 0.00 0.00 0.00 0.00 0.00 0.00 0.00 0.01 0.01 0.00 0.00 0.00 0.00 0.00 0.00 0.01 0.01 0.02 0.02 0.01 0.01 0.01 0.01 0.01 0.01 0.01 0.01 0.00 0.00 0.00 0.01 0.01 0.01 0.01 0.01 0.00 0.00 0.00 0.01 0.01 0.01
0.01 0.04 0.05 0.03 0.01 0.00 0.00 0.00 0.00 0.00 0.00 0.00 0.00 0.00 0.01 0.02 0.00 0.00 0.00 0.00 0.00 0.00 0.01 0.01 0.01 0.02 0.02 0.02 0.01 0.01 0.01 0.02 0.03 0.03 0.01 0.01 0.00 0.00 0.01 0.01 0.01 0.01 0.01 0.00 0.01 0.01 0.01 0.01 0.02
0.01 0.03 0.05 0.05 0.03 0.00 0.01 0.01 0.01 0.01 0.00 0.01 0.01 0.02 0.02 0.02 0.00 0.01 0.01 0.01 0.00 0.00 0.00 0.01 0.02 0.02 0.02 0.02 0.02 0.01 0.02 0.03 0.05 0.04 0.02 0.01 0.01 0.01 0.00 0.01 0.01 0.01 0.00 0.01 0.01 0.01 0.01 0.01 0.01
0.02 0.03 0.04 0.03 0.03 0.02 0.01 0.01 0.01 0.01 0.00 0.01 0.02 0.02 0.03 0.03 0.02 0.01 0.01 0.01 0.01 0.01 0.01 0.01 0.02 0.02 0.02 0.03 0.04 0.03 0.03 0.04 0.07 0.07 0.04 0.02 0.02 0.01 0.00 0.00 0.01 0.01 0.00 0.01 0.00 0.01 0.01 0.00 0.00
0.00 0.00 0.02 0.04 0.07 0.08 0.02 0.01 0.01 0.01 0.01 0.01 0.02 0.04 0.07 0.06 0.05 0.03 0.01 0.02 0.02 0.02 0.03 0.03 0.04 0.05 0.06 0.08 0.09 0.05 0.04 0.07 0.09 0.08 0.05 0.02 0.01 0.01 0.01 0.00 0.00 0.01 0.01 0.01 0.00 0.00 0.00 0.00 0.00
0.00 0.02 0.09 0.13 0.10 0.07 0.03 0.01 0.01 0.01 0.01 0.01 0.02 0.05 0.06 0.05 0.05 0.05 0.05 0.05 0.04 0.04 0.04 0.04 0.06 0.11 0.11 0.10 0.12 0.09 0.08 0.09 0.09 0.07 0.04 0.02 0.02 0.07 0.07 0.04 0.02 0.01 0.00 0.00 0.00 0.00 0.00 0.00 0.00
0.00 0.05 0.10 0.05 0.03 0.02 0.03 0.03 0.03 0.02 0.02 0.02 0.04 0.06 0.07 0.07 0.08 0.08 0.09 0.10 0.09 0.08 0.05 0.04 0.05 0.07 0.09 0.08 0.11 0.12 0.13 0.16 0.12 0.13 0.11 0.07 0.09 0.11 0.09 0.08 0.04 0.02 0.00 0.00 0.00 0.00 0.00 0.00 0.01
0.00 0.03 0.02 0.00 0.00 0.00 0.01 0.02 0.02 0.03 0.05 0.03 0.04 0.07 0.10 0.11 0.12 0.10 0.10 0.11 0.12 0.10 0.08 0.05 0.04 0.04 0.05 0.07 0.09 0.10 0.11 0.17 0.18 0.17 0.19 0.18 0.16 0.12 0.08 0.08 0.06 0.02 0.01 0.01 0.01 0.00 0.00 0.00 0.00
0.00 0.01 0.00 0.00 0.00 0.00 0.00 0.01 0.01 0.02 0.03 0.02 0.03 0.05 0.07 0.09 0.10 0.09 0.08 0.08 0.07 0.07 0.08 0.07 0.05 0.05 0.05 0.08 0.11 0.11 0.12 0.11 0.12 0.10 0.10 0.17 0.17 0.11 0.08 0.07 0.07 0.04 0.03 0.02 0.02 0.01 0.00 0.00 0.00
0.00 0.00 0.00 0.00 0.00 0.00 0.00 0.00 0.00 0.01 0.01 0.01 0.02 0.03 0.04 0.04 0.06 0.07 0.06 0.06 0.06 0.06 0.06 0.05 0.06 0.06 0.06 0.09 0.11 0.11 0.16 0.15 0.13 0.17 0.12 0.13 0.14 0.10 0.07 0.04 0.04 0.03 0.02 0.03 0.03 0.01 0.01 0.01 0.00
0.00 0.00 0.00 0.00 0.00 0.00 0.00 0.00 0.00 0.00 0.00 0.01 0.01 0.01 0.02 0.02 0.03 0.04 0.04 0.04 0.04 0.05 0.06 0.06 0.06 0.06 0.06 0.07 0.09 0.10 0.13 0.14 0.13 0.21 0.17 0.12 0.14 0.11 0.07 0.05 0.05 0.03 0.01 0.02 0.02 0.01 0.00 0.00 0.00
0.00 0.00 0.01 0.00 0.00 0.00 0.01 0.01 0.00 0.00 0.01 0.01 0.01 0.01 0.01 0.01 0.01 0.01 0.01 0.02 0.02 0.02 0.02 0.03 0.03 0.04 0.05 0.05 0.07 0.08 0.12 0.13 0.15 0.20 0.20 0.15 0.13 0.11 0.11 0.09 0.07 0.05 0.02 0.01 0.01 0.01 0.00 0.00 0.00
0.00 0.02 0.06 0.02 0.01 0.00 0.02 0.03 0.01 0.00 0.01 0.01 0.01 0.01 0.01 0.01 0.00 0.00 0.00 0.00 0.01 0.01 0.01 0.01 0.01 0.02 0.02 0.04 0.06 0.07 0.09 0.11 0.13 0.14 0.17 0.16 0.15 0.13 0.13 0.13 0.10 0.07 0.04 0.03 0.02 0.02 0.01 0.00 0.00
0.01 0.03 0.07 0.04 0.01 0.00 0.01 0.01 0.00 0.00 0.01 0.01 0.01 0.01 0.00 0.00 0.00 0.00 0.00 0.00 0.00 0.00 0.00 0.00 0.00 0.01 0.01 0.01 0.03 0.05 0.06 0.08 0.09 0.11 0.15 0.17 0.18 0.18 0.15 0.14 0.12 0.10 0.09 0.07 0.04 0.04 0.04 0.02 0.01
0.01 0.01 0.02 0.02 0.00 0.00 0.00 0.00 0.00 0.00 0.00 0.00 0.00 0.00 0.00 0.00 0.00 0.00 0.00 0.00 0.00 0.00 0.00 0.00 0.00 0.00 0.00 0.00 0.01 0.03 0.04 0.05 0.06 0.09 0.12 0.16 0.20 0.21 0.18 0.14 0.12 0.15 0.15 0.12 0.10 0.08 0.06 0.04 0.03
0.00 0.00 0.00 0.00 0.00 0.00 0.00 0.00 0.00 0.00 0.00 0.00 0.00 0.00 0.00 0.00 0.00 0.00 0.00 0.00 0.00 0.00 0.00 0.00 0.00 0.00 0.00 0.00 0.01 0.02 0.04 0.05 0.05 0.05 0.07 0.11 0.13 0.14 0.16 0.15 0.15 0.18 0.17 0.15 0.12 0.13 0.13 0.07 0.04
0.00 0.00 0.00 0.00 0.00 0.00 0.00 0.00 0.00 0.00 0.00 0.00 0.00 0.00 0.00 0.00 0.00 0.00 0.00 0.00 0.00 0.00 0.00 0.00 0.00 0.00 0.01 0.01 0.01 0.01 0.02 0.03 0.05 0.07 0.06 0.06 0.07 0.10 0.11 0.12 0.14 0.17 0.18 0.18 0.17 0.19 0.18 0.12 0.08
0.00 0.00 0.00 0.00 0.00 0.00 0.00 0.00 0.00 0.00 0.00 0.00 0.00 0.00 0.00 0.00 0.00 0.00 0.00 0.00 0.01 0.01 0.01 0.01 0.01 0.01 0.01 0.02 0.02 0.02 0.03 0.03 0.04 0.05 0.06 0.07 0.06 0.08 0.11 0.12 0.13 0.15 0.17 0.18 0.20 0.19 0.21 0.18 0.13
0.00 0.00 0.00 0.00 0.00 0.00 0.00 0.01 0.01 0.01 0.01 0.01 0.01 0.00 0.00 0.00 0.00 0.00 0.00 0.01 0.01 0.01 0.02 0.02 0.01 0.02 0.02 0.04 0.05 0.04 0.05 0.05 0.05 0.06 0.07 0.09 0.09 0.11 0.14 0.17 0.15 0.16 0.18 0.18 0.18 0.17 0.19 0.22 0.18
0.00 0.00 0.00 0.00 0.00 0.00 0.00 0.00 0.01 0.01 0.01 0.01 0.01 0.00 0.00 0.00 0.00 0.01 0.01 0.01 0.01 0.02 0.02 0.02 0.03 0.03 0.04 0.04 0.05 0.05 0.06 0.06 0.06 0.09 0.09 0.09 0.08 0.11 0.13 0.16 0.17 0.17 0.18 0.17 0.19 0.20 0.20 0.22 0.23
0.00 0.00 0.00 0.00 0.00 0.00 0.00 0.00 0.00 0.00 0.01 0.01 0.01 0.00 0.00 0.00 0.00 0.01 0.01 0.01 0.02 0.02 0.03 0.03 0.04 0.04 0.05 0.05 0.06 0.07 0.08 0.08 0.09 0.12 0.10 0.10 0.10 0.10 0.10 0.13 0.15 0.17 0.20 0.20 0.19 0.19 0.19 0.18 0.20
0.00 0.00 0.00 0.00 0.00 0.00 0.00 0.00 0.00 0.00 0.00 0.00 0.00 0.00 0.00 0.00 0.01 0.00 0.01 0.01 0.02 0.02 0.03 0.04 0.04 0.05 0.05 0.07 0.09 0.08 0.11 0.12 0.11 0.11 0.13 0.13 0.14 0.13 0.11 0.13 0.14 0.17 0.18 0.19 0.19 0.18 0.17 0.16 0.17
0.00 0.00 0.00 0.00 0.00 0.00 0.00 0.00 0.00 0.00 0.00 0.00 0.00 0.00 0.00 0.00 0.01 0.01 0.01 0.01 0.02 0.03 0.03 0.03 0.03 0.05 0.05 0.07 0.11 0.11 0.13 0.13 0.12 0.13 0.15 0.16 0.16 0.16 0.15 0.17 0.18 0.18 0.18 0.17 0.18 0.17 0.17 0.16 0.16
0.00 0.00 0.00 0.00 0.00 0.00 0.00 0.00 0.00 0.00 0.00 0.00 0.00 0.00 0.00 0.00 0.00 0.01 0.01 0.01 0.02 0.03 0.03 0.04 0.04 0.05 0.05 0.05 0.09 0.11 0.11 0.12 0.15 0.16 0.19 0.22 0.22 0.20 0.16 0.16 0.18 0.19 0.18 0.17 0.18 0.19 0.19 0.18 0.17
0.00 0.00 0.00 0.00 0.00 0.00 0.00 0.00 0.00 0.00 0.00 0.00 0.00 0.00 0.00 0.00 0.00 0.00 0.00 0.00 0.01 0.02 0.03 0.04 0.05 0.06 0.05 0.07 0.11 0.13 0.15 0.19 0.17 0.14 0.17 0.19 0.17 0.17 0.15 0.13 0.14 0.18 0.19 0.19 0.20 0.18 0.18 0.17 0.16
0.00 0.00 0.00 0.00 0.00 0.00 0.00 0.00 0.00 0.00 0.00 0.00 0.00 0.00 0.00 0.00 0.00 0.00 0.00 0.00 0.01 0.01 0.02 0.03 0.04 0.05 0.06 0.08 0.10 0.13 0.15 0.16 0.16 0.15 0.14 0.14 0.14 0.13 0.14 0.13 0.13 0.13 0.15 0.17 0.18 0.17 0.16 0.18 0.17
0.00 0.00 0.00 0.00 0.00 0.00 0.00 0.00 0.00 0.00 0.00 0.00 0.00 0.00 0.00 0.00 0.00 0.00 0.00 0.00 0.01 0.01 0.01 0.01 0.02 0.03 0.03 0.04 0.06 0.10 0.08 0.07 0.09 0.10 0.12 0.11 0.12 0.12 0.11 0.11 0.13 0.12 0.11 0.10 0.11 0.12 0.13 0.15 0.15
MSLP
1008.16 1009.20 1010.43 1011.65 1012.70 1013.41 1013.71 1013.60 1013.16 1012.55 1011.95 1011.50 1011.31 1011.40 1011.72 1012.16 1012.59 1012.90 1013.04 1013.00 1012.85 1012.69 1012.61 1012.69 1012.94 1013.35 1013.83 1014.30 1014.67 1014.91 1015.00 1014.99 1014.94 1014.92 1014.97 1015.13 1015.36 1015.62 1015.88 1016.07 1016.19 1016.23 1016.22 1016.21 1016.21 1016.24 1016.31 1016.37 1016.40
1008.59 1009.79 1011.10 1012.32 1013.27 1013.83 1013.94 1013.64 1013.05 1012.34 1011.68 1011.22 1011.04 1011.13 1011.43 1011.83 1012.20 1012.45 1012.55 1012.52 1012.42 1012.36 1012.41 1012.63 1013.01 1013.51 1014.04 1014.52 1014.87 1015.07 1015.13 1015.10 1015.04 1015.04 1015.11 1015.28 1015.51 1015.75 1015.95 1016.09 1016.14 1016.14 1016.11 1016.10 1016.14 1016.22 1016.32 1016.42 1016.47
1009.07 1010.37 1011.71 1012.87 1013.71 1014.11 1014.05 1013.61 1012.93 1012.18 1011.52 1011.09 1010.94 1011.04 1011.31 1011.64 1011.92 1012.09 1012.12 1012.07 1012.01 1012.03 1012.19 1012.53 1013.03 1013.61 1014.19 1014.67 1015.00 1015.17 1015.21 1015.17 1015.14 1015.16 1015.27 1015.46 1015.68 1015.90 1016.05 1016.13 1016.12 1016.08 1016.03 1016.03 1016.09 1016.20 1016.35 1016.48 1016.55
1009.53 1010.91 1012.23 1013.31 1014.02 1014.28 1014.11 1013.60 1012.90 1012.18 1011.60 1011.25 1011.15 1011.26 1011.49 1011.73 1011.90 1011.94 1011.88 1011.77 1011.71 1011.78 1012.02 1012.46 1013.03 1013.67 1014.26 1014.73 1015.04 1015.18 1015.20 1015.18 1015.18 1015.25 1015.40 1015.62 1015.86 1016.06 1016.19 1016.21 1016.16 1016.08 1016.02 1016.02 1016.11 1016.25 1016.43 1016.58 1016.66
1010.00 1011.38 1012.65 1013.65 1014.25 1014.41 1014.19 1013.68 1013.05 1012.44 1012.00 1011.78 1011.76 1011.89 1012.08 1012.21 1012.23 1012.12 1011.92 1011.73 1011.63 1011.70 1011.98 1012.45 1013.06 1013.70 1014.28 1014.72 1014.99 1015.10 1015.11 1015.11 1015.14 1015.27 1015.48 1015.74 1016.01 1016.21 1016.32 1016.32 1016.25 1016.16 1016.10 1016.11 1016.21 1016.38 1016.57 1016.72 1016.80
1010.47 1011.82 1013.02 1013.92 1014.43 1014.55 1014.33 1013.91 1013.42 1013.00 1012.75 1012.69 1012.77 1012.93 1013.06 1013.07 1012.94 1012.66 1012.31 1011.99 1011.81 1011.84 1012.10 1012.56 1013.15 1013.75 1014.27 1014.65 1014.86 1014.94 1014.94 1014.95 1015.03 1015.20 1015.47 1015.78 1016.07 1016.30 1016.41 1016.42 1016.35 1016.27 1016.22 1016.25 1016.37 1016.54 1016.74 1016.88 1016.95
1010.97 1012.26 1013.36 1014.17 1014.62 1014.73 1014.59 1014.30 1014.01 1013.81 1013.78 1013.88 1014.08 1014.26 1014.34 1014.24 1013.95 1013.50 1013.00 1012.56 1012.27 1012.22 1012.41 1012.80 1013.31 1013.83 1014.26 1014.55 1014.70 1014.72 1014.71 1014.72 1014.83 1015.05 1015.35 1015.70 1016.03 1016.27 1016.41 1016.43 1016.39 1016.33 1016.31 1016.37 1016.50 1016.68 1016.87 1016.99 1017.03
1011.50 1012.70 1013.70 1014.42 1014.84 1014.98 1014.94 1014.82 1014.74 1014.77 1014.94 1015.21 1015.49 1015.69 1015.72 1015.52 1015.10 1014.52 1013.88 1013.32 1012.93 1012.78 1012.87 1013.16 1013.55 1013.95 1014.26 1014.45 1014.51 1014.48 1014.44 1014.46 1014.58 1014.82 1015.15 1015.52 1015.86 1016.12 1016.27 1016.32 1016.31 1016.29 1016.31 1016.40 1016.54 1016.72 1016.89 1016.99 1017.01
1012.04 1013.14 1014.05 1014.70 1015.10 1015.29 1015.35 1015.40 1015.51 1015.74 1016.07 1016.46 1016.80 1017.01 1016.99 1016.71 1016.20 1015.53 1014.81 1014.16 1013.69 1013.44 1013.42 1013.58 1013.83 1014.09 1014.27 1014.34 1014.32 1014.24 1014.18 1014.19 1014.31 1014.56 1014.88 1015.24 1015.57 1015.83 1015.99 1016.06 1016.08 1016.11 1016.16 1016.27 1016.43 1016.61 1016.75 1016.83 1016.83
1012.56 1013.57 1014.39 1014.99 1015.38 1015.62 1015.79 1015.97 1016.23 1016.59 1017.02 1017.47 1017.83 1018.01 1017.96 1017.63 1017.08 1016.36 1015.61 1014.93 1014.41 1014.08 1013.96 1013.99 1014.10 1014.21 1014.26 1014.22 1014.12 1014.00 1013.92 1013.92 1014.04 1014.27 1014.58 1014.91 1015.20 1015.43 1015.58 1015.67 1015.71 1015.77 1015.86 1015.99 1016.15 1016.32 1016.45 1016.50 1016.48
1013.02 1013.95 1014.70 1015.27 1015.67 1015.96 1016.21 1016.48 1016.82 1017.24 1017.70 1018.13 1018.46 1018.60 1018.50 1018.16 1017.60 1016.91 1016.18 1015.52 1014.99 1014.62 1014.42 1014.33 1014.30 1014.27 1014.20 1014.07 1013.91 1013.76 1013.67 1013.67 1013.78 1013.99 1014.26 1014.54 1014.79 1014.98 1015.10 1015.18 1015.24 1015.31 1015.42 1015.57 1015.73 1015.89 1015.99 1016.03 1016.00
1013.40 1014.26 1014.97 1015.52 1015.94 1016.28 1016.58 1016.90 1017.26 1017.66 1018.07 1018.43 1018.67 1018.74 1018.60 1018.26 1017.74 1017.11 1016.47 1015.87 1015.37 1014.99 1014.73 1014.55 1014.40 1014.24 1014.07 1013.87 1013.67 1013.51 1013.42 1013.43 1013.54 1013.72 1013.95 1014.18 1014.37 1014.51 1014.60 1014.66 1014.73 1014.81 1014.93 1015.08 1015.24 1015.37 1015.46 1015.48 1015.45
1013.70 1014.52 1015.20 1015.76 1016.20 1016.57 1016.91 1017.23 1017.56 1017.89 1018.20 1018.43 1018.55 1018.53 1018.35 1018.02 1017.56 1017.04 1016.50 1015.99 1015.55 1015.19 1014.89 1014.62 1014.37 1014.12 1013.86 1013.61 1013.39 1013.23 1013.16 1013.19 1013.30 1013.46 1013.65 1013.83 1013.97 1014.06 1014.12 1014.17 1014.23 1014.32 1014.45 1014.60 1014.74 1014.86 1014.92 1014.93 1014.90
1013.96 1014.74 1015.42 1015.98 1016.46 1016.86 1017.21 1017.52 1017.79 1018.02 1018.18 1018.27 1018.26 1018.14 1017.91 1017.60 1017.21 1016.79 1016.38 1015.97 1015.60 1015.25 1014.92 1014.59 1014.26 1013.93 1013.60 1013.31 1013.09 1012.94 1012.89 1012.94 1013.05 1013.20 1013.36 1013.49 1013.59 1013.65 1013.69 1013.74 1013.81 1013.91 1014.04 1014.18 1014.32 1014.41 1014.46 1014.46 1014.43
1014.23 1014.97 1015.63 1016.21 1016.72 1017.15 1017.51 1017.80 1018.01 1018.13 1018.16 1018.11 1017.97 1017.76 1017.50 1017.19 1016.88 1016.55 1016.24 1015.92 1015.60 1015.27 1014.91 1014.53 1014.12 1013.72 1013.35 1013.03 1012.80 1012.67 1012.64 1012.70 1012.81 1012.94 1013.07 1013.17 1013.24 1013.28 1013.32 1013.37 1013.46 1013.58 1013.72 1013.87 1014.00 1014.09 1014.13 1014.12 1014.10
1014.55 1015.25 1015.88 1016.46 1016.99 1017.45 1017.83 1018.11 1018.27 1018.31 1018.24 1018.07 1017.83 1017.55 1017.26 1016.98 1016.71 1016.46 1016.21 1015.96 1015.67 1015.33 1014.94 1014.50 1014.03 1013.57 1013.16 1012.83 1012.59 1012.46 1012.44 1012.49 1012.58 1012.69 1012.78 1012.85 1012.89 1012.93 1012.97 1013.05 1013.17 1013.32 1013.49 1013.66 1013.80 1013.89 1013.93 1013.94 1013.94
1014.96 1015.57 1016.16 1016.73 1017.27 1017.75 1018.15 1018.44 1018.58 1018.58 1018.45 1018.22 1017.93 1017.61 1017.31 1017.03 1016.80 1016.59 1016.39 1016.15 1015.86 1015.50 1015.06 1014.57 1014.05 1013.55 1013.11 1012.76 1012.51 1012.38 1012.33 1012.35 1012.41 1012.46 1012.50 1012.53 1012.55 1012.58 1012.63 1012.74 1012.90 1013.10 1013.31 1013.51 1013.68 1013.79 1013.86 1013.89 1013.92
1015.41 1015.93 1016.45 1016.99 1017.53 1018.03 1018.46 1018.76 1018.92 1018.92 1018.79 1018.55 1018.24 1017.93 1017.63 1017.38 1017.16 1016.97 1016.76 1016.51 1016.20 1015.79 1015.31 1014.78 1014.22 1013.70 1013.24 1012.87 1012.62 1012.46 1012.37 1012.34 1012.32 1012.29 1012.26 1012.22 1012.20 1012.21 1012.28 1012.42 1012.62 1012.86 1013.12 1013.37 1013.59 1013.75 1013.86 1013.94 1014.02
1015.88 1016.29 1016.74 1017.23 1017.75 1018.26 1018.71 1019.05 1019.24 1019.28 1019.18 1018.98 1018.71 1018.43 1018.16 1017.92 1017.71 1017.52 1017.29 1017.01 1016.65 1016.20 1015.68 1015.11 1014.54 1014.01 1013.55 1013.18 1012.91 1012.71 1012.57 1012.45 1012.34 1012.21 1012.07 1011.95 1011.86 1011.84 1011.90 1012.05 1012.28 1012.57 1012.88 1013.19 1013.46 1013.69 1013.87 1014.02 1014.17
1016.30 1016.60 1016.97 1017.42 1017.91 1018.42 1018.89 1019.26 1019.50 1019.59 1019.56 1019.42 1019.21 1018.98 1018.76 1018.55 1018.34 1018.13 1017.87 1017.55 1017.14 1016.65 1016.10 1015.52 1014.96 1014.44 1014.00 1013.64 1013.35 1013.12 1012.91 1012.70 1012.46 1012.21 1011.95 1011.72 1011.55 1011.47 1011.49 1011.64 1011.89 1012.21 1012.56 1012.92 1013.26 1013.56 1013.83 1014.07 1014.30
1016.63 1016.85 1017.16 1017.56 1018.03 1018.52 1018.99 1019.38 1019.66 1019.81 1019.83 1019.77 1019.63 1019.47 1019.29 1019.11 1018.91 1018.68 1018.40 1018.03 1017.59 1017.07 1016.51 1015.95 1015.41 1014.93 1014.52 1014.19 1013.90 1013.63 1013.35 1013.04 1012.68 1012.29 1011.89 1011.54 1011.26 1011.10 1011.08 1011.20 1011.44 1011.76 1012.15 1012.55 1012.94 1013.32 1013.67 1014.01 1014.35
1016.85 1017.04 1017.32 1017.69 1018.13 1018.60 1019.06 1019.45 1019.74 1019.92 1019.99 1019.98 1019.91 1019.80 1019.67 1019.51 1019.33 1019.09 1018.78 1018.39 1017.92 1017.40 1016.85 1016.31 1015.82 1015.39 1015.04 1014.73 1014.45 1014.15 1013.81 1013.40 1012.93 1012.41 1011.89 1011.41 1011.02 1010.77 1010.67 1010.74 1010.95 1011.26 1011.65 1012.07 1012.51 1012.94 1013.38 1013.81 1014.25
1017.01 1017.21 1017.49 1017.85 1018.28 1018.73 1019.15 1019.51 1019.79 1019.96 1020.04 1020.06 1020.02 1019.95 1019.85 1019.72 1019.55 1019.31 1018.99 1018.59 1018.12 1017.61 1017.09 1016.59 1016.15 1015.78 1015.47 1015.19 1014.91 1014.60 1014.21 1013.73 1013.16 1012.53 1011.90 1011.31 1010.83 1010.48 1010.31 1010.31 1010.46 1010.74 1011.10 1011.52 1011.97 1012.44 1012.94 1013.45 1013.97
1017.17 1017.41 1017.73 1018.11 1018.54 1018.96 1019.34 1019.65 1019.87 1020.00 1020.05 1020.05 1020.02 1019.96 1019.88 1019.77 1019.61 1019.37 1019.06 1018.67 1018.21 1017.72 1017.22 1016.77 1016.37 1016.04 1015.77 1015.52 1015.25 1014.92 1014.50 1013.96 1013.32 1012.62 1011.91 1011.24 1010.68 1010.26 1010.01 1009.94 1010.03 1010.24 1010.55 1010.94 1011.38 1011.85 1012.37 1012.93 1013.52
1017.36 1017.68 1018.07 1018.50 1018.93 1019.33 1019.65 1019.89 1020.03 1020.09 1020.08 1020.03 1019.97 1019.90 1019.82 1019.71 1019.56 1019.34 1019.04 1018.67 1018.23 1017.76 1017.29 1016.87 1016.50 1016.20 1015.95 1015.71 1015.44 1015.10 1014.65 1014.09 1013.42 1012.68 1011.92 1011.21 1010.59 1010.12 1009.81 1009.67 1009.68 1009.83 1010.07 1010.39 1010.78 1011.23 1011.74 1012.30 1012.92
1017.62 1018.04 1018.51 1018.99 1019.43 1019.81 1020.09 1020.25 1020.30 1020.26 1020.17 1020.05 1019.94 1019.84 1019.74 1019.63 1019.49 1019.28 1019.00 1018.65 1018.23 1017.79 1017.35 1016.94 1016.59 1016.29 1016.04 1015.79 1015.51 1015.16 1014.70 1014.13 1013.46 1012.72 1011.96 1011.24 1010.61 1010.10 1009.75 1009.55 1009.49 1009.56 1009.72 1009.96 1010.27 1010.65 1011.11 1011.64 1012.24
1017.94 1018.45 1018.99 1019.52 1019.99 1020.34 1020.57 1020.66 1020.62 1020.49 1020.32 1020.13 1019.96 1019.82 1019.70 1019.58 1019.44 1019.25 1018.99 1018.66 1018.27 1017.85 1017.42 1017.02 1016.67 1016.36 1016.09 1015.83 1015.53 1015.17 1014.71 1014.15 1013.50 1012.79 1012.06 1011.36 1010.75 1010.24 1009.86 1009.62 1009.50 1009.48 1009.55 1009.70 1009.91 1010.20 1010.57 1011.03 1011.57
1018.27 1018.84 1019.44 1020.00 1020.47 1020.81 1020.99 1021.03 1020.92 1020.72 1020.48 1020.23 1020.01 1019.83 1019.69 1019.57 1019.43 1019.25 1019.01 1018.71 1018.34 1017.94 1017.52 1017.12 1016.76 1016.44 1016.15 1015.87 1015.56 1015.19 1014.75 1014.22 1013.61 1012.95 1012.28 1011.63 1011.05 1010.56 1010.18 1009.91 1009.73 1009.64 1009.62 1009.67 1009.78 1009.96 1010.23 1010.58 1011.03
1018.52 1019.12 1019.73 1020.30 1020.76 1021.08 1021.24 1021.23 1021.09 1020.85 1020.57 1020.29 1020.04 1019.84 1019.69 1019.56 1019.43 1019.26 1019.03 1018.75 1018.41 1018.03 1017.63 1017.25 1016.89 1016.56 1016.26 1015.97 1015.66 1015.30 1014.88 1014.40 1013.85 1013.26 1012.66 1012.08 1011.55 1011.10 1010.72 1010.43 1010.21 1010.06 1009.95 1009.91 1009.91 1009.98 1010.13 1010.37 1010.71
1018.65 1019.23 1019.81 1020.34 1020.77 1021.06 1021.19 1021.17 1021.03 1020.79 1020.51 1020.23 1019.99 1019.79 1019.63 1019.50 1019.37 1019.21 1019.00 1018.74 1018.43 1018.08 1017.71 1017.35 1017.02 1016.71 1016.42 1016.15 1015.85 1015.52 1015.15 1014.72 1014.24 1013.73 1013.21 1012.70 1012.23 1011.81 1011.45 1011.15 1010.91 1010.70 1010.53 1010.40 1010.32 1010.29 1010.32 1010.45 1010.66
Thickness
5848 5847 5845 5832 5810 5798 5790 5801 5813 5815 5822 5834 5837 5829 5815 5805 5795 5783 5811 5827 5823 5814 5806 5802 5799 5797 5795 5793 5791 5789 5787 5785 5784 5782 5781 5779 5778 5776 5775 5774 5772 5771 5770 5770 5769 5769 5768 5768 5768
5854 5853 5840 5820 5796 5781 5786 5806 5811 5818 5830 5839 5836 5829 5818 5811 5816 5812 5818 5824 5822 5814 5807 5803 5799 5796 5794 5792 5790 5789 5787 5785 5784 5782 5781 5779 5778 5776 5775 5773 5772 5771 5770 5769 5768 5768 5767 5767 5767
5856 5854 5830 5811 5798 5786 5788 5809 5817 5828 5838 5836 5828 5824 5814 5808 5815 5815 5819 5824 5821 5815 5808 5801 5798 5795 5793 5791 5789 5788 5786 5785 5783 5782 5781 5779 5778 5776 5775 5773 5772 5771 5770 5769 5768 5767 5766 5766 5765
5856 5843 5829 5808 5796 5803 5807 5815 5823 5823 5829 5834 5827 5813 5811 5818 5818 5819 5823 5824 5818 5812 5806 5800 5796 5794 5792 5790 5788 5787 5785 5784 5783 5781 5780 5779 5777 5776 5775 5773 5772 5771 5770 5768 5767 5766 5766 5765 5764
5854 5830 5805 5795 5799 5810 5819 5825 5826 5818 5819 5822 5818 5801 5799 5816 5822 5822 5822 5820 5815 5811 5805 5798 5795 5792 5790 5789 5787 5786 5784 5783 5782 5781 5779 5778 5777 5776 5774 5773 5772 5770 5769 5768 5767 5766 5765 5764 5764
5837 5821 5788 5782 5794 5810 5819 5825 5821 5812 5815 5816 5812 5800 5795 5812 5815 5816 5818 5817 5815 5810 5804 5798 5794 5791 5789 5787 5786 5785 5783 5782 5781 5780 5779 5777 5776 5775 5774 5773 5771 5770 5769 5768 5766 5765 5765 5764 5763
5828 5812 5792 5792 5793 5801 5814 5823 5815 5807 5804 5806 5811 5797 5793 5801 5809 5814 5814 5812 5811 5808 5804 5798 5794 5791 5789 5787 5785 5784 5782 5781 5780 5779 5778 5777 5776 5775 5773 5772 5771 5769 5768 5767 5766 5765 5764 5764 5763
5840 5820 5798 5791 5790 5793 5813 5817 5812 5805 5797 5807 5806 5786 5780 5793 5805 5808 5807 5805 5804 5803 5801 5798 5795 5792 5789 5787 5785 5784 5782 5781 5779 5778 5777 5776 5775 5774 5773 5772 5770 5769 5768 5767 5766 5765 5764 5763 5763
5843 5806 5783 5787 5790 5792 5808 5807 5806 5806 5798 5794 5791 5784 5786 5796 5799 5796 5793 5793 5793 5793 5794 5794 5793 5791 5789 5788 5785 5783 5782 5780 5778 5777 5776 5775 5775 5775 5774 5772 5771 5769 5768 5766 5765 5764 5764 5763 5763
5829 5792 5787 5803 5806 5796 5795 5794 5796 5790 5779 5777 5778 5781 5786 5788 5786 5782 5779 5778 5780 5782 5785 5787 5787 5787 5787 5786 5784 5783 5781 5779 5778 5777 5776 5775 5775 5776 5775 5774 5771 5769 5768 5766 5765 5764 5764 5763 5764
5819 5799 5804 5809 5810 5804 5792 5783 5784 5778 5760 5761 5763 5768 5774 5775 5773 5771 5770 5771 5772 5775 5778 5780 5781 5781 5781 5781 5781 5780 5780 5779 5777 5777 5776 5775 5775 5775 5775 5772 5770 5768 5767 5766 5765 5764 5764 5765 5767
5809 5804 5808 5804 5806 5800 5789 5780 5768 5761 5755 5763 5764 5766 5766 5765 5763 5763 5762 5764 5766 5768 5770 5772 5774 5775 5775 5775 5775 5776 5775 5774 5775 5776 5776 5775 5774 5774 5774 5773 5771 5770 5768 5768 5767 5766 5767 5769 5771
5800 5795 5797 5796 5793 5786 5778 5767 5759 5753 5758 5762 5762 5761 5758 5757 5757 5759 5759 5759 5759 5759 5762 5765 5767 5767 5768 5769 5770 5771 5770 5769 5771 5772 5773 5773 5772 5771 5772 5773 5772 5772 5771 5769 5769 5769 5771 5772 5773
5800 5796 5792 5790 5786 5781 5769 5762 5755 5747 5754 5753 5752 5750 5750 5749 5750 5751 5751 5751 5751 5752 5754 5756 5757 5759 5760 5762 5764 5765 5766 5766 5768 5768 5768 5769 5769 5769 5768 5769 5769 5770 5771 5770 5768 5769 5770 5771 5772
5803 5788 5782 5782 5780 5774 5769 5745 5741 5744 5748 5744 5743 5742 5742 5743 5744 5742 5742 5742 5742 5744 5746 5747 5749 5751 5752 5753 5755 5758 5760 5761 5763 5763 5763 5764 5765 5765 5765 5765 5765 5766 5767 5768 5767 5768 5768 5768 5768
5796 5779 5758 5767 5774 5773 5758 5727 5734 5741 5739 5734 5734 5734 5733 5734 5735 5734 5733 5733 5734 5735 5736 5738 5741 5741 5742 5744 5746 5749 5752 5754 5757 5758 5758 5758 5758 5760 5761 5760 5760 5762 5762 5763 5763 5763 5761 5762 5762
5779 5762 5746 5750 5764 5764 5751 5723 5727 5734 5730 5725 5724 5724 5723 5723 5723 5724 5723 5723 5723 5725 5727 5728 5730 5731 5733 5736 5738 5741 5744 5746 5749 5751 5752 5753 5753 5753 5754 5755 5756 5757 5757 5757 5757 5757 5755 5754 5755
5760 5761 5756 5745 5752 5751 5735 5721 5722 5725 5720 5714 5713 5713 5712 5709 5709 5712 5712 5712 5713 5715 5716 5717 5719 5721 5723 5726 5729 5732 5735 5738 5741 5743 5745 5746 5748 5748 5748 5750 5751 5751 5751 5750 5750 5750 5750 5750 5749
5775 5767 5759 5748 5752 5743 5729 5719 5716 5715 5710 5704 5703 5702 5700 5698 5700 5700 5700 5701 5701 5702 5703 5705 5707 5710 5712 5714 5715 5717 5721 5726 5730 5734 5737 5739 5740 5742 5743 5744 5745 5745 5744 5744 5744 5744 5743 5743 5745
5771 5761 5755 5746 5747 5738 5724 5716 5713 5709 5702 5698 5694 5692 5690 5687 5687 5687 5688 5689 5689 5689 5691 5694 5696 5698 5701 5703 5705 5708 5712 5716 5720 5725 5728 5731 5733 5735 5738 5738 5739 5739 5739 5739 5739 5738 5736 5736 5738
5760 5752 5745 5737 5738 5734 5722 5708 5703 5703 5701 5695 5690 5686 5682 5679 5677 5677 5677 5678 5678 5679 5681 5683 5685 5688 5691 5694 5696 5699 5702 5706 5710 5714 5718 5722 5725 5728 5730 5733 5734 5734 5734 5734 5733 5733 5731 5728 5730
5743 5747 5741 5733 5723 5717 5717 5691 5691 5694 5688 5684 5680 5677 5673 5672 5671 5670 5669 5669 5669 5671 5673 5674 5676 5678 5681 5684 5685 5687 5689 5692 5698 5704 5709 5713 5717 5720 5723 5725 5727 5728 5728 5729 5729 5729 5728 5726 5722
5742 5745 5737 5731 5722 5714 5718 5701 5684 5691 5675 5673 5673 5670 5667 5667 5665 5663 5662 5661 5662 5663 5665 5666 5667 5669 5672 5674 5676 5678 5681 5685 5690 5695 5699 5703 5708 5712 5715 5718 5719 5721 5722 5723 5724 5724 5724 5723 5719
5745 5740 5737 5732 5720 5701 5714 5701 5675 5676 5670 5669 5669 5666 5664 5663 5661 5659 5659 5657 5657 5658 5658 5660 5660 5661 5663 5665 5668 5670 5672 5676 5679 5683 5687 5692 5697 5703 5706 5710 5712 5714 5715 5716 5718 5719 5719 5718 5717
5742 5726 5711 5706 5697 5699 5712 5699 5673 5677 5677 5671 5666 5664 5663 5661 5658 5655 5653 5652 5652 5653 5653 5654 5654 5655 5657 5659 5660 5662 5664 5667 5670 5673 5678 5682 5687 5692 5697 5701 5705 5707 5709 5711 5711 5712 5713 5714 5713
5732 5724 5701 5689 5697 5699 5704 5690 5676 5684 5681 5676 5671 5666 5662 5659 5656 5653 5651 5649 5649 5649 5649 5650 5650 5650 5652 5653 5654 5656 5659 5661 5664 5667 5671 5675 5679 5684 5690 5694 5697 5700 5703 5705 5706 5706 5707 5709 5708
5724 5726 5725 5706 5708 5704 5701 5687 5680 5685 5679 5674 5669 5664 5659 5657 5655 5653 5651 5649 5648 5648 5647 5647 5647 5647 5648 5649 5650 5652 5653 5656 5659 5663 5666 5669 5673 5679 5682 5687 5691 5694 5696 5699 5700 5700 5702 5703 5704
5730 5722 5716 5705 5690 5684 5694 5688 5674 5673 5670 5670 5667 5662 5659 5658 5656 5654 5652 5650 5649 5648 5648 5647 5646 5646 5647 5648 5648 5649 5650 5653 5655 5658 5661 5664 5668 5672 5676 5679 5683 5687 5690 5692 5693 5694 5696 5697 5698
5723 5722 5716 5709 5703 5681 5672 5670 5684 5677 5673 5669 5667 5665 5662 5660 5659 5657 5655 5653 5652 5651 5650 5648 5647 5646 5646 5647 5647 5647 5649 5650 5652 5653 5656 5659 5662 5666 5669 5672 5676 5679 5681 5684 5686 5687 5689 5690 5691
5722 5714 5708 5694 5694 5696 5682 5669 5690 5684 5680 5676 5671 5669 5667 5665 5663 5661 5659 5656 5654 5652 5651 5650 5648 5647 5646 5646 5646 5646 5647 5648 5649 5650 5653 5656 5658 5660 5663 5666 5668 5671 5673 5676 5678 5679 5681 5682 5683